Overview Statistics Trail Chart Weather Telemetry Raw packets
 

This is the latest recevied weather packets stored in our database for station/object KD0SBN. If no packets are shown the sender has not sent any weather packets the latest 10 day(s).

<< 108 109 110 111 112 113 114 >>
Time Temp. Humidity Pressure Rain* Wind** Luminosity Snow
1787748189 16.67° C 78% 1025.4 hPa 0 mm - - -
1787747888 16.11° C 80% 1025.5 hPa 0 mm - - -
1787747584 15.56° C 82% 1025.3 hPa 0 mm - - -
1787747283 15.56° C 84% 1025.3 hPa 0 mm - - -
1787746979 15° C 84% 1025.3 hPa 0 mm - - -
1787746675 15° C 85% 1025.4 hPa 0 mm - - -
1787746374 15.56° C 85% 1025.3 hPa 0 mm - - -
1787746072 15.56° C 85% 1025.1 hPa 0 mm - - -
1787745772 15.56° C 85% 1025.4 hPa 0 mm - - -
1787745470 15.56° C 85% 1025.3 hPa 0 mm - - -
1787745166 15.56° C 85% 1025.1 hPa 0 mm - - -
1787744862 15.56° C 85% 1025.3 hPa 0 mm - - -
1787744558 15.56° C 85% 1025.3 hPa 0 mm - - -
1787744253 15.56° C 84% 1025.1 hPa 0 mm - - -
1787743949 15.56° C 85% 1025.1 hPa 0 mm - - -
1787743648 15.56° C 86% 1025.3 hPa 0 mm - - -
1787743344 15° C 87% 1025.1 hPa 0 mm - - -
1787743040 15.56° C 88% 1025.4 hPa 0 mm - - -
1787742735 15° C 88% 1025 hPa 0 mm - - -
1787742430 15° C 88% 1024.9 hPa 0 mm - - -
1787742127 15° C 87% 1024.9 hPa 0 mm - - -
1787741821 15° C 87% 1025.1 hPa 0 mm - - -
1787741517 15.56° C 86% 1025 hPa 0 mm - - -
1787741217 15.56° C 85% 1025.1 hPa 0 mm - - -
1787740917 16.67° C 81% 1024.9 hPa 0 mm - - -

* Rain latest hour (hover to see other rain measurements)
** Current wind speed in m/s (hover to see current wind gust speed)